GFSWCAN_850_temp_159.txt.gz
Temp
11 11 11 10 9 8 8 7 8 7 7 7 7 7 8 8 8 8 8 8 7 7 8 10 12 10 11 12 14 16 17 17 17 16 18 18 18 19 19 20 20 20 19 19 20 19 20 20 21 22 21 22 25 25
11 11 10 9 8 8 8 7 7 7 7 7 7 7 7 7 7 8 8 8 7 7 8 10 12 14 13 13 12 14 14 15 16 13 13 14 15 17 16 17 17 18 17 18 19 18 18 20 22 23 22 22 24 26
11 10 8 8 7 7 7 7 7 7 6 6 6 7 7 7 7 7 7 7 6 7 8 11 14 15 16 15 14 13 14 15 17 16 16 15 16 16 14 14 15 15 14 15 15 18 19 18 18 21 22 21 24 23
10 9 8 8 7 7 7 7 6 6 6 6 6 7 7 7 7 7 7 7 6 6 7 11 14 15 16 15 15 15 15 15 16 16 16 15 16 18 14 14 13 14 14 13 14 17 18 20 19 17 17 22 24 23
10 9 8 7 7 7 7 6 6 6 6 6 6 7 7 7 7 7 7 7 6 6 7 7 11 15 15 16 16 16 16 16 16 16 15 15 18 17 17 16 16 13 13 13 13 17 16 18 20 20 19 20 20 21
9 8 7 7 7 6 6 6 6 6 6 7 7 7 7 7 7 7 7 7 6 6 6 9 11 15 16 16 16 16 16 16 16 16 16 17 18 17 15 16 18 18 18 18 17 17 17 19 19 20 19 20 22 21
8 7 7 6 6 6 6 6 6 6 6 6 6 7 7 7 7 7 7 7 7 6 6 7 11 15 16 16 16 16 16 17 16 16 16 16 17 18 15 15 18 18 18 17 16 15 15 16 18 20 20 18 21 21
7 6 6 6 5 6 6 6 6 6 7 7 7 7 7 7 7 8 8 8 6 5 6 8 12 15 16 15 15 15 14 16 16 16 16 16 17 16 14 17 18 18 17 16 15 15 15 17 17 18 18 18 21 21
6 5 5 5 5 5 6 6 6 7 7 7 7 7 7 7 6 7 7 7 6 6 7 10 11 12 14 15 15 14 13 11 14 13 15 16 13 12 14 17 18 18 17 16 16 15 15 16 19 17 17 20 20 18
5 5 5 5 5 5 6 6 6 6 7 7 7 7 7 7 8 7 6 6 6 6 6 8 11 12 14 14 14 13 13 11 12 12 13 14 15 18 16 16 16 16 17 17 17 17 17 17 16 16 17 19 19 18
5 5 5 5 5 5 5 6 5 6 5 6 6 8 8 8 8 7 8 8 8 9 9 11 12 12 13 12 12 13 12 12 12 13 14 14 13 15 15 15 16 16 17 17 18 18 18 17 17 17 15 17 17 15
5 5 5 5 5 5 5 5 5 5 4 5 5 6 7 8 8 9 11 12 12 12 12 12 12 12 13 13 12 13 12 13 13 14 12 13 13 14 14 15 15 15 16 17 18 18 18 18 17 17 17 17 14 15
5 5 5 5 5 5 5 5 5 5 5 5 6 6 8 9 7 10 12 11 10 10 12 12 13 13 13 12 12 11 12 13 15 13 13 13 14 14 14 14 14 15 15 17 18 18 18 18 17 16 16 16 18 18
5 5 5 5 5 5 4 4 5 5 5 5 7 5 9 10 12 13 12 12 12 11 12 12 12 11 11 12 11 11 12 13 13 13 12 13 13 14 14 14 15 15 15 16 18 18 19 18 17 18 18 16 16 17
5 5 4 5 4 4 4 4 4 4 4 6 8 7 11 13 14 13 13 12 12 13 12 12 12 10 9 10 11 13 14 14 13 12 12 13 13 14 14 14 15 15 15 15 15 17 19 17 18 18 16 17 17 19
4 4 4 4 4 5 5 4 4 4 5 7 9 11 12 13 13 14 13 12 13 12 12 10 9 9 9 9 11 13 13 12 11 11 13 14 14 14 14 14 15 16 16 16 15 17 18 19 18 18 19 19 19 20
4 4 3 4 4 4 5 4 4 5 7 9 10 11 12 12 12 13 13 13 13 13 12 9 9 9 8 9 11 9 10 10 10 13 13 13 13 14 14 15 15 15 16 16 16 17 18 17 18 19 19 19 19 19
3 3 4 4 4 4 5 5 5 7 8 9 10 12 12 12 12 13 13 13 13 13 12 11 10 9 10 9 9 8 9 11 12 13 13 14 14 14 14 15 16 16 16 17 16 17 17 17 15 16 17 17 19 19
3 3 4 4 4 4 5 6 6 8 9 10 11 12 12 12 12 12 12 12 13 13 12 11 10 9 9 10 10 11 11 11 13 13 14 14 14 15 15 16 16 15 16 16 16 16 16 16 15 16 15 13 15 16
4 4 4 4 4 4 5 7 7 8 10 11 11 11 11 11 11 12 12 13 12 12 13 12 13 13 14 14 13 13 13 13 13 14 14 15 14 15 15 16 15 15 16 16 16 16 16 14 14 16 16 14 14 15
4 4 4 4 4 4 5 7 8 8 9 10 10 11 11 12 12 12 12 13 12 12 11 13 13 13 14 14 14 13 13 13 13 13 13 13 14 15 16 16 16 15 15 15 14 14 15 15 15 15 16 16 16 15
3 4 4 4 4 5 5 7 8 9 9 9 10 11 11 12 12 12 12 12 11 11 12 13 13 12 12 12 12 12 12 12 12 12 13 13 14 15 16 16 16 15 15 15 15 14 15 15 15 15 15 15 15 15
3 4 4 5 5 6 6 8 9 9 10 11 11 12 12 13 13 12 11 10 11 11 12 12 12 12 12 12 11 12 11 11 12 13 13 14 15 15 15 15 15 14 13 13 14 14 15 15 15 15 15 15 15 15
3 4 5 6 6 6 9 9 9 10 10 10 11 11 12 12 12 12 11 10 10 11 11 11 12 12 12 11 11 11 12 12 12 13 14 14 15 14 13 14 15 15 16 15 14 15 14 15 15 15 15 15 15 15
4 4 4 4 7 8 9 10 10 10 10 11 11 11 12 12 11 12 12 10 10 11 11 11 12 12 12 12 12 12 11 11 12 12 12 13 13 13 14 14 14 14 14 15 15 15 15 15 15 15 15 15 15 15
4 6 5 9 10 10 10 10 10 10 10 11 11 12 11 11 11 12 10 10 10 10 11 11 11 11 11 12 11 11 11 11 12 12 12 13 13 13 13 14 14 14 14 14 15 15 15 15 15 15 15 15 15 15
4 8 8 9 9 9 9 10 10 10 10 11 12 12 11 11 9 8 9 10 10 10 11 10 10 11 11 12 11 11 11 12 12 13 13 13 13 13 14 14 14 14 14 14 14 14 14 14 14 14 14 14 14 14
7 8 9 9 9 9 9 9 10 10 11 11 11 11 10 11 11 10 10 10 10 10 10 10 11 11 11 11 10 11 12 12 12 13 13 13 14 14 13 13 14 14 14 14 14 13 13 13 13 13 13 14 14 14
8 8 8 9 9 8 9 9 10 10 11 11 11 11 11 12 11 11 10 10 10 10 9 9 11 11 11 11 11 11 12 12 13 13 14 14 14 13 13 13 13 13 13 13 13 13 13 13 13 13 13 13 12 13
8 8 9 9 9 9 9 9 10 10 10 11 10 9 9 10 10 10 10 10 9 8 8 9 11 11 11 11 11 12 11 11 12 12 12 13 13 12 12 12 13 13 13 13 13 12 12 13 13 13 12 12 11 11
9 9 9 9 9 10 10 10 10 9 8 8 7 7 7 8 9 9 9 9 8 8 9 10 11 12 11 11 12 12 11 11 12 12 12 11 11 12 12 12 12 12 12 12 12 12 11 11 11 11 10 10 10 10
10 9 9 10 10 10 9 8 7 6 6 5 6 6 6 7 8 10 10 11 10 11 11 11 12 12 12 12 12 11 11 10 10 10 11 11 11 10 11 11 11 11 11 11 11 10 10 10 9 8 8 8 8 8
10 10 11 10 10 9 7 7 5 5 6 6 8 9 9 11 12 11 12 12 11 11 12 12 13 12 12 11 11 11 10 9 9 9 9 9 9 10 10 9 10 10 10 10 10 9 8 7 7 7 7 6 6 6

GFSWCAN_850_temp_162.txt.gz
Temp
11 11 11 11 11 10 9 8 8 8 8 8 7 7 8 8 9 9 8 7 7 7 8 10 10 9 9 9 9 12 12 13 12 11 12 13 14 14 16 16 16 16 15 16 17 17 18 21 21 21 19 22 24 24
11 11 11 11 10 8 8 8 8 8 8 7 7 7 7 8 8 8 9 8 7 6 9 9 10 12 11 13 10 11 12 11 14 11 12 11 13 13 12 13 12 13 12 13 14 15 16 17 18 19 20 23 22 21
11 11 11 10 8 8 8 8 8 8 7 7 7 7 7 7 7 8 8 7 7 5 8 11 13 12 12 13 12 11 12 13 15 15 13 11 13 12 13 12 12 13 13 13 14 14 16 18 19 19 19 19 19 21
10 10 10 10 9 8 8 8 8 7 7 7 7 7 7 8 7 7 8 6 6 6 6 10 12 14 14 14 13 14 14 14 14 14 14 13 12 13 12 14 12 13 13 12 12 14 16 18 19 20 20 20 20 21
10 10 9 9 8 8 7 7 7 7 7 7 7 7 7 7 8 8 8 7 7 6 6 7 10 14 15 15 16 15 14 14 14 14 11 11 14 13 13 12 12 13 13 13 13 15 16 17 18 18 19 19 19 18
9 9 8 8 7 7 7 6 6 7 7 7 7 7 7 7 7 8 7 7 6 6 6 4 9 15 16 16 16 16 16 15 14 15 13 15 16 15 12 12 15 16 17 17 16 17 17 17 17 18 16 18 18 18
9 8 8 7 7 7 7 6 6 7 7 7 7 7 7 7 7 7 7 7 7 6 5 6 6 12 15 15 15 15 15 15 15 15 13 15 16 15 12 14 15 17 18 18 17 17 16 18 16 17 17 17 19 18
7 7 6 6 6 6 6 6 7 7 7 8 8 8 8 7 8 8 7 8 7 5 5 7 6 10 14 14 14 15 15 15 15 15 15 13 14 14 11 13 17 17 17 17 17 17 17 16 16 15 17 17 18 19
6 6 6 6 6 6 6 6 7 7 7 8 8 8 8 8 8 7 7 7 6 6 6 7 7 7 13 13 14 13 13 10 13 11 12 13 10 11 12 15 16 17 17 17 17 16 16 15 15 15 15 16 18 19
6 6 6 6 6 6 6 6 6 7 7 7 7 7 8 7 7 7 7 6 6 6 6 6 8 7 12 12 11 11 12 9 10 11 13 10 10 16 16 16 15 16 16 15 16 16 16 16 17 17 16 16 17 16
5 5 5 6 6 6 6 6 6 7 6 6 7 7 7 8 7 7 7 7 7 6 7 7 9 8 12 9 8 12 9 9 11 10 12 11 10 12 14 14 14 14 15 15 15 16 16 15 17 17 17 17 16 16
5 5 5 6 6 5 5 6 6 6 5 6 5 6 7 7 8 7 7 9 8 10 10 10 12 12 12 12 10 11 10 10 11 12 11 12 12 13 14 14 14 15 15 15 16 16 17 17 18 18 17 16 17 17
5 5 5 5 5 5 5 5 5 5 5 5 5 5 7 8 7 8 11 11 10 11 12 12 9 12 12 12 10 8 10 10 12 11 11 12 13 13 14 14 14 14 15 14 14 15 15 17 17 17 18 18 17 16
5 5 5 5 5 5 4 4 5 5 5 5 6 4 6 8 8 10 10 11 12 12 12 12 11 11 11 9 9 9 9 10 12 12 11 11 13 14 14 14 15 13 14 14 15 15 14 15 17 17 17 16 16 16
5 5 5 4 4 4 5 5 5 5 5 5 7 5 7 10 11 13 13 12 13 12 12 11 10 9 8 9 8 9 11 12 12 10 11 12 13 13 14 14 13 13 13 14 15 15 15 14 17 17 17 16 17 17
5 5 4 4 4 5 5 5 5 4 5 5 7 8 10 10 11 12 13 12 13 12 11 10 7 8 9 8 9 11 11 8 10 9 10 11 13 14 13 14 13 13 13 14 14 14 14 14 14 15 17 17 17 16
4 4 3 4 4 4 4 4 4 5 6 7 8 9 10 10 10 12 12 12 12 12 8 8 8 9 8 8 9 9 9 9 9 10 12 13 13 14 14 14 14 15 16 16 15 15 14 15 14 15 15 15 17 15
4 3 3 4 4 4 4 4 5 6 6 7 8 9 10 11 11 12 12 12 12 11 11 10 10 9 8 9 9 8 8 10 11 12 12 13 13 14 14 14 15 15 15 15 14 16 15 15 14 14 14 15 15 16
4 4 3 3 4 4 4 5 6 6 8 9 9 10 10 11 12 12 12 12 12 12 12 10 8 8 8 9 9 10 11 11 12 12 13 13 14 14 14 15 14 15 16 15 14 14 15 16 15 15 16 16 16 16
4 4 4 4 3 4 5 6 7 7 8 10 10 10 10 11 11 11 12 12 12 12 11 9 9 11 11 12 12 12 13 13 12 12 13 14 15 14 14 15 15 15 15 15 14 15 15 14 13 13 14 14 15 14
4 3 4 4 4 4 5 6 7 8 8 9 9 10 10 11 10 11 11 12 11 10 9 11 12 12 12 12 12 12 12 12 12 12 12 13 14 14 14 15 14 15 14 13 14 14 14 14 14 14 13 14 13 13
3 4 4 4 3 5 5 6 7 8 8 9 9 10 9 10 11 11 12 11 11 12 12 12 12 12 12 13 12 12 12 12 12 11 12 13 13 14 14 14 14 15 14 14 13 14 14 14 14 15 15 14 13 13
3 4 4 4 4 5 7 7 8 8 8 9 10 10 10 11 12 12 11 10 10 10 11 11 12 12 12 12 12 11 11 12 12 12 13 13 13 13 14 14 14 14 15 15 14 14 14 15 15 14 15 14 14 14
4 4 4 5 5 5 7 8 9 9 9 9 8 9 10 11 12 11 10 9 9 10 10 11 11 12 12 12 12 12 11 11 12 12 13 13 13 13 14 14 14 14 13 13 14 15 15 14 15 15 15 15 15 14
4 4 4 3 6 7 8 9 9 9 9 9 9 9 10 11 8 9 10 9 9 9 10 11 11 12 12 11 11 11 11 12 12 13 13 13 13 14 14 14 14 14 14 15 15 14 14 14 14 15 15 15 15 15
3 5 4 6 8 7 9 9 9 9 9 9 10 11 11 9 10 9 8 8 9 10 10 10 11 11 11 11 11 11 11 12 12 12 12 13 13 13 13 13 14 14 14 14 14 14 14 14 14 14 14 14 14 14
3 5 7 8 8 9 9 9 9 9 8 9 9 10 10 10 9 8 9 10 9 10 10 10 10 11 10 10 10 11 11 12 12 13 13 13 13 13 14 14 14 13 13 13 14 13 13 13 13 13 13 13 13 14
5 7 7 8 8 9 8 8 8 8 8 10 10 9 10 10 10 11 11 10 10 10 10 10 11 10 10 10 10 11 11 11 12 13 13 13 13 13 13 13 13 13 13 13 13 13 13 13 13 13 12 12 12 12
6 7 7 8 8 9 8 8 9 10 10 10 9 9 10 11 10 10 10 10 10 10 10 10 11 10 10 10 10 11 11 12 13 13 13 13 13 13 13 13 13 13 13 13 13 12 12 13 13 12 11 11 11 11
6 7 8 8 8 8 9 9 9 9 10 9 9 9 9 9 9 9 9 9 9 10 10 10 11 11 11 11 11 10 11 11 12 12 12 12 12 12 12 12 12 12 12 12 12 12 12 12 12 11 11 11 10 10
8 9 8 8 8 9 9 9 9 8 8 7 7 7 7 7 8 9 8 8 8 9 10 11 11 11 11 12 12 11 11 11 11 11 11 11 11 11 11 12 11 11 11 11 11 11 11 11 10 10 9 9 8 8
9 9 9 8 9 9 9 8 7 6 6 5 6 6 6 7 7 9 8 8 9 11 11 11 11 11 11 11 11 11 11 10 10 10 10 10 10 10 11 11 10 10 10 10 10 9 9 9 8 8 8 7 7 6
10 10 10 9 9 9 8 7 6 6 6 6 7 8 8 8 11 11 11 11 11 11 11 11 11 11 11 11 10 10 9 9 9 8 9 9 9 9 9 9 9 9 9 9 9 8 8 6 6 6 6 6 6 6

GFSWCAN_850_temp_165.txt.gz
Temp
11 11 11 11 11 11 10 10 9 9 8 8 8 7 8 8 9 9 8 7 7 6 9 9 9 9 9 9 7 11 10 12 10 10 11 11 12 12 13 13 12 14 14 14 15 16 16 17 21 20 17 19 20 20
10 11 11 11 10 10 9 9 9 9 8 8 7 7 7 8 8 8 8 7 7 6 9 9 9 8 8 9 8 9 10 10 12 9 9 10 11 11 11 12 11 12 11 12 12 14 15 17 17 17 18 19 19 19
10 10 10 10 10 10 9 9 8 8 8 7 7 7 7 7 7 8 8 8 7 5 7 10 12 11 11 11 10 9 11 12 13 13 12 9 11 10 12 12 12 11 12 11 12 15 14 16 17 17 17 19 21 21
10 10 10 10 10 9 9 8 8 8 8 7 7 7 7 7 7 7 8 7 6 5 5 9 11 12 11 12 11 12 13 13 13 13 12 12 12 12 10 12 11 12 12 12 12 12 15 16 17 17 18 18 20 21
10 10 9 9 9 8 8 7 7 7 7 7 7 7 7 7 7 7 7 6 6 6 5 7 11 13 13 13 13 14 13 12 11 11 9 9 12 12 11 11 11 12 13 12 12 15 15 16 18 18 17 18 18 19
9 9 9 8 8 7 7 7 7 7 7 7 8 8 8 7 8 7 7 7 6 6 6 5 9 14 14 15 15 15 15 12 11 12 12 13 15 14 10 11 14 15 14 15 16 17 17 17 17 17 16 18 18 19
8 8 7 7 7 7 6 7 7 7 7 8 8 8 8 7 7 7 7 7 7 6 5 6 6 11 13 14 15 15 14 13 13 13 12 13 14 13 9 12 15 16 16 17 17 16 15 16 16 16 16 16 17 18
7 7 6 6 6 6 6 7 7 7 7 8 8 8 8 8 8 7 7 7 7 6 5 6 5 9 12 13 13 14 13 13 14 13 12 11 12 12 10 12 15 16 16 17 17 16 16 15 15 15 15 15 17 18
5 6 6 6 6 6 6 7 7 7 8 8 8 8 8 8 7 7 7 6 6 6 6 6 5 6 12 12 12 12 11 9 11 9 10 12 10 10 12 13 14 14 14 15 15 16 16 15 16 15 15 15 16 18
5 5 5 6 6 6 6 6 7 7 7 7 7 7 7 7 7 6 6 6 6 6 6 5 7 6 10 11 10 10 10 9 9 10 12 10 11 12 13 13 14 14 14 14 14 15 16 16 16 16 16 16 17 18
5 5 5 5 5 6 6 6 6 7 7 7 7 7 7 7 7 7 7 7 6 6 6 7 7 6 11 8 7 10 8 8 10 10 11 11 11 11 13 14 14 14 14 14 14 14 15 14 16 16 15 16 17 17
5 5 5 5 5 5 6 6 6 6 6 6 6 6 7 7 7 6 6 7 7 9 9 8 11 10 11 11 9 9 10 9 10 11 11 12 11 12 12 12 13 13 13 13 13 14 15 16 16 17 16 16 17 17
5 5 5 5 5 5 5 5 5 5 5 5 5 5 6 7 4 7 10 10 10 11 12 11 9 11 11 11 9 7 8 9 11 11 11 11 11 11 11 11 12 13 13 13 14 14 15 16 17 17 17 15 16 17
5 5 5 5 5 5 5 5 5 5 5 4 5 6 5 6 6 8 9 10 12 12 12 11 10 9 10 9 9 9 8 9 12 11 11 10 10 11 11 11 11 12 12 12 12 13 14 16 16 16 15 15 16 15
5 5 5 4 4 5 5 5 5 5 4 4 5 5 5 9 10 11 11 11 12 12 11 10 9 8 8 8 9 9 10 12 9 10 10 10 10 11 12 12 12 12 12 13 13 13 14 16 16 15 15 14 15 15
5 5 5 4 4 5 5 5 5 4 4 5 5 6 8 8 9 10 11 12 12 12 11 10 6 7 8 8 8 10 10 8 9 8 9 9 11 12 12 13 13 13 13 14 14 14 15 15 14 15 15 14 14 14
4 4 4 4 4 4 4 5 4 4 5 6 6 8 8 8 9 10 11 12 11 11 9 7 8 9 8 8 9 9 8 8 8 9 10 11 11 12 13 13 13 13 14 15 15 15 15 14 15 15 15 14 13 13
4 4 3 3 4 4 4 4 5 5 5 6 6 8 9 9 10 10 11 12 12 11 11 9 9 8 8 8 8 8 9 10 10 10 11 12 12 13 13 13 13 14 14 14 13 13 13 13 13 15 15 15 15 15
4 4 3 3 3 4 4 5 5 5 6 7 8 9 9 10 10 11 11 11 11 11 11 9 7 8 7 7 8 9 9 9 10 11 12 11 12 13 13 14 14 13 14 13 12 13 14 13 12 13 13 13 14 14
4 4 4 4 3 4 4 6 6 6 7 8 8 9 9 9 10 10 11 11 11 11 10 8 7 10 10 11 12 11 12 12 12 11 12 13 13 14 13 13 14 13 13 13 13 13 13 13 13 13 13 13 13 13
4 3 4 4 4 4 4 5 6 7 8 8 9 9 9 10 10 10 11 11 10 10 9 11 12 12 12 11 12 12 11 11 11 11 11 11 13 13 13 15 13 14 13 13 14 14 14 14 14 14 14 13 13 13
3 3 3 3 4 4 4 5 6 7 7 8 8 9 9 8 9 10 11 10 10 11 11 11 11 12 11 12 12 11 11 11 11 11 12 12 13 14 14 14 14 14 14 14 14 14 15 14 14 14 14 14 14 14
3 3 3 4 4 4 5 6 6 8 7 8 9 8 9 10 11 11 11 9 9 10 10 10 11 11 11 12 11 11 11 11 12 12 12 13 14 14 13 13 13 13 13 14 14 14 14 14 14 14 14 14 13 13
3 4 4 4 4 5 7 7 7 8 9 8 7 8 9 10 11 10 9 8 8 8 9 10 11 11 11 11 11 11 11 11 12 12 12 13 13 13 13 13 14 14 14 14 14 14 14 14 14 14 14 14 14 14
3 4 4 3 5 5 7 7 9 8 9 7 8 8 9 10 8 9 9 8 8 9 9 10 10 10 10 11 11 11 11 11 11 12 12 12 12 13 13 13 14 14 14 14 14 14 14 14 15 14 14 14 14 14
2 4 3 5 6 5 7 8 9 8 8 8 8 10 10 8 9 8 8 8 8 9 9 10 10 10 11 11 10 10 10 11 11 12 12 13 12 13 13 13 13 13 13 13 14 14 14 14 14 14 14 14 14 14
3 4 5 6 7 8 8 9 8 7 7 8 7 9 8 10 8 9 9 10 10 9 10 10 10 10 10 9 10 10 11 11 12 12 12 13 13 13 13 13 13 13 13 13 13 13 12 12 12 12 13 13 12 12
4 5 4 7 7 8 8 8 8 9 7 9 8 8 9 9 9 10 10 10 10 10 10 10 10 10 10 9 9 10 11 12 12 13 13 12 13 13 13 13 13 13 13 13 13 13 13 13 12 12 12 12 11 11
4 5 5 6 7 7 8 8 8 9 10 9 8 8 9 10 10 9 10 9 9 9 9 9 10 10 10 10 10 11 12 13 13 13 13 12 13 13 13 13 12 12 13 13 12 12 12 12 11 11 10 10 10 10
5 6 6 7 7 7 9 9 9 9 9 9 9 8 8 8 9 9 9 9 9 9 9 9 10 10 10 10 10 10 11 11 12 12 12 12 11 12 12 12 12 12 12 11 11 11 10 11 10 10 10 9 9 9
7 7 7 7 7 8 9 9 8 8 7 7 7 6 6 6 8 8 9 8 8 8 8 10 10 11 11 11 11 11 11 11 11 10 10 10 10 11 11 11 11 11 11 11 11 11 10 10 9 9 8 8 7 7
7 8 8 7 8 9 9 8 7 6 5 5 5 5 6 6 6 8 8 8 9 10 10 11 11 11 11 11 11 11 10 10 9 9 9 9 9 10 10 10 10 10 10 9 9 9 8 8 7 7 6 6 6 6
8 8 9 8 8 8 7 7 6 5 5 6 7 7 7 8 9 10 10 10 11 11 11 11 11 11 10 10 10 10 9 9 8 8 8 8 8 8 8 8 8 8 8 8 8 7 7 6 6 6 6 6 6 6

GFSWCAN_850_temp_168.txt.gz
Temp
10 10 11 11 11 10 10 10 9 9 9 9 8 8 8 8 9 8 8 7 7 7 9 9 8 9 9 8 7 9 9 10 9 9 10 10 11 11 12 12 12 12 12 12 14 15 15 16 18 18 16 17 19 20
9 9 10 10 10 10 10 9 9 9 9 9 8 7 7 8 8 8 8 7 6 6 9 9 8 8 8 8 8 8 9 9 10 8 9 8 10 11 10 13 11 12 11 12 11 12 13 15 15 16 16 17 19 18
8 8 10 10 10 10 10 9 8 8 8 8 8 7 7 7 8 8 8 7 7 5 7 9 11 10 10 10 10 9 10 11 12 12 10 8 10 9 11 10 11 11 11 11 11 13 12 15 15 16 16 16 17 19
8 8 10 10 9 9 9 8 8 8 7 7 7 7 7 8 7 7 8 7 6 5 5 10 11 11 11 11 11 12 11 11 11 11 11 8 9 11 9 10 10 11 11 11 11 11 13 15 16 16 17 17 18 18
8 9 10 9 9 9 8 8 8 7 7 7 7 7 7 8 8 7 7 6 6 6 5 7 11 12 12 11 12 11 10 9 8 11 9 8 10 10 9 9 10 11 11 10 11 11 12 16 17 16 17 17 17 18
8 9 9 9 8 8 7 7 7 7 7 7 7 7 7 8 8 8 7 7 6 5 5 5 9 13 13 13 14 14 12 9 8 10 11 13 14 13 11 9 13 14 14 14 12 12 14 15 15 16 16 17 17 17
8 8 8 7 7 6 7 7 7 7 7 8 8 8 7 8 7 7 7 7 7 6 5 4 5 11 13 13 13 13 12 11 10 11 10 12 12 12 9 12 15 15 15 14 14 14 12 15 15 16 16 17 16 17
6 6 6 6 6 6 6 7 7 7 7 8 8 8 8 8 8 7 7 6 6 6 6 5 5 8 11 12 12 13 12 11 11 11 11 9 10 10 9 11 14 14 14 15 14 13 14 15 15 15 15 15 15 16
5 5 5 6 6 6 6 7 7 7 7 8 8 7 8 7 7 7 6 7 7 6 6 5 5 6 11 11 11 11 10 8 10 8 9 11 10 10 11 11 12 13 13 14 14 15 15 15 16 16 16 16 15 16
5 5 5 5 5 5 6 6 7 7 7 8 7 7 7 7 7 6 6 6 6 6 6 5 6 5 9 9 9 9 9 7 9 9 11 10 11 10 11 11 11 12 12 12 12 14 15 15 16 16 16 16 16 16
4 4 5 5 5 5 6 6 6 7 7 7 7 7 6 7 7 6 6 7 6 7 6 6 7 5 10 7 6 9 7 7 9 10 10 11 11 10 10 10 12 13 12 12 12 13 13 13 15 15 16 17 17 17
5 5 5 5 5 5 5 5 6 6 6 6 6 6 6 6 6 6 6 7 7 9 9 8 10 9 10 9 8 8 9 9 9 10 10 11 10 9 10 11 11 12 12 12 12 12 13 13 14 14 15 17 17 17
4 5 5 5 5 5 5 5 5 5 5 5 5 5 5 6 3 6 9 9 8 10 11 10 8 10 10 9 8 8 8 8 9 10 10 10 10 9 9 10 10 11 11 12 13 13 13 13 14 14 16 17 17 17
5 5 5 5 5 5 5 5 5 5 5 4 5 6 4 5 5 6 8 8 11 11 11 10 9 8 9 8 9 9 8 8 11 10 9 9 9 8 9 10 11 11 12 13 12 12 13 13 15 15 16 16 16 16
5 5 5 5 4 5 5 5 5 5 5 4 4 4 4 7 8 9 10 10 11 11 11 9 8 8 8 8 8 8 10 10 8 8 8 9 8 8 10 12 12 12 13 13 13 13 12 12 12 14 15 16 16 15
5 5 5 4 4 4 5 5 5 4 4 4 4 4 7 6 8 9 10 11 11 11 10 9 6 6 7 7 8 9 9 8 8 8 8 8 9 10 11 12 11 13 13 13 13 13 12 12 13 13 14 16 16 15
4 5 4 3 3 4 4 4 4 4 4 5 5 6 6 7 7 9 10 10 11 11 9 7 8 9 7 8 8 8 8 8 8 8 9 9 9 11 12 12 12 13 13 13 13 13 12 12 12 13 14 15 15 15
4 4 4 3 3 4 4 4 4 5 5 6 5 7 7 8 9 9 10 10 10 11 10 9 9 8 8 7 8 7 7 8 8 8 9 11 12 12 12 12 12 12 12 12 13 13 12 13 13 12 13 13 14 14
4 4 4 3 3 4 4 4 5 4 6 6 7 7 8 9 9 10 10 10 10 10 10 9 8 7 7 7 8 9 8 8 9 10 11 12 12 12 12 12 12 12 12 13 12 12 12 12 12 12 12 13 13 13
4 4 4 4 3 3 4 5 5 5 6 7 7 8 8 9 9 9 10 10 10 9 8 8 7 10 10 11 11 10 10 10 10 10 10 11 12 13 13 13 13 13 12 13 13 13 12 12 12 12 12 12 12 12
4 3 3 4 3 4 4 5 6 6 7 7 8 8 8 8 9 9 10 10 9 10 9 11 11 12 11 11 11 11 11 11 10 10 10 11 13 12 13 13 13 13 13 13 13 13 14 13 13 13 12 12 12 12
3 3 3 3 3 4 4 5 5 6 6 8 7 8 8 8 9 9 9 9 9 10 10 10 11 11 11 11 11 11 11 11 11 11 11 11 12 13 13 13 14 14 14 14 14 14 14 14 14 13 12 12 13 13
3 3 3 3 4 4 4 5 5 6 5 7 8 7 7 8 10 10 9 8 8 8 8 9 10 10 10 11 11 11 11 11 11 11 12 12 12 12 13 13 13 13 14 14 14 14 14 14 14 14 13 13 13 13
3 3 3 4 4 4 6 6 6 7 8 8 7 7 8 9 10 9 8 8 8 8 8 9 9 10 10 11 11 11 11 11 11 11 11 12 12 13 13 13 14 14 14 14 14 14 14 14 14 14 14 14 14 14
3 4 3 3 4 4 6 5 6 7 8 8 8 7 8 9 7 9 8 8 8 8 8 9 9 10 10 10 10 11 10 10 11 11 11 12 12 13 13 13 13 13 13 13 14 14 14 14 14 14 14 14 14 14
2 4 3 3 5 4 4 5 8 8 7 8 7 9 8 7 9 9 7 7 8 8 9 10 9 10 10 10 9 10 10 10 11 11 11 12 12 12 12 12 13 13 13 13 13 13 13 13 13 13 14 13 13 14
3 4 4 5 5 6 6 8 8 7 7 7 6 7 7 9 8 8 8 9 9 9 9 10 10 10 9 9 9 9 10 11 12 12 12 12 12 12 12 12 12 13 13 13 13 13 13 12 12 12 12 12 12 12
3 4 3 5 5 6 6 6 7 8 7 8 7 6 8 9 8 9 9 9 9 9 9 9 9 10 10 9 9 10 11 12 12 12 12 13 13 13 13 13 13 13 13 13 12 12 12 12 11 11 11 11 11 10
3 4 4 4 5 6 6 7 8 9 9 9 7 7 8 9 9 9 9 9 9 9 9 9 9 10 10 10 9 10 11 12 12 12 12 12 12 12 12 12 12 12 12 12 12 12 11 11 10 10 10 10 9 9
4 5 5 5 5 5 8 9 9 9 9 8 8 8 8 8 8 8 8 8 8 9 9 9 10 10 11 10 10 10 10 11 11 12 12 12 12 11 12 12 12 11 11 11 11 10 10 10 9 9 9 8 8 7
5 5 5 5 6 8 8 8 8 7 6 6 6 6 6 6 7 8 9 9 9 8 8 9 10 11 11 10 10 10 10 11 11 10 10 10 10 10 11 10 10 10 9 9 9 9 8 8 8 7 7 7 6 6
6 6 6 6 7 8 8 6 6 5 5 5 5 5 5 5 6 8 8 8 8 9 10 10 11 11 11 10 10 10 10 9 9 9 9 9 9 9 9 9 9 9 8 8 8 8 7 7 6 6 6 6 6 6
7 7 7 7 7 7 7 6 6 5 5 5 6 6 7 7 8 9 9 9 9 10 11 10 10 10 10 9 9 8 8 8 8 8 8 8 8 8 8 8 7 7 7 6 6 5 5 5 6 5 5 5 5 5

GFSWCAN_850_temp_171.txt.gz
Temp
10 9 8 9 10 10 10 10 10 9 9 9 9 9 9 9 9 8 8 8 7 7 9 9 8 9 9 9 11 11 12 11 14 15 14 15 15 15 15 15 16 17 18 18 18 17 19 16 19 19 17 16 18 19
9 8 8 9 10 10 10 10 9 9 9 9 9 9 8 9 9 8 7 7 7 7 8 9 9 9 8 8 8 8 10 10 12 14 13 12 14 13 14 15 13 15 15 15 16 18 16 14 14 15 15 15 16 16
9 8 8 8 10 10 9 9 9 9 8 8 8 8 8 8 8 8 8 7 7 6 7 10 10 10 10 10 9 9 9 10 10 11 13 12 13 13 14 15 14 13 13 14 15 17 16 15 15 15 15 16 16 16
9 9 8 9 9 9 9 9 9 8 8 8 8 8 8 8 8 7 7 6 6 5 5 10 11 11 11 11 10 10 10 10 9 9 11 14 14 13 14 14 14 15 13 15 15 15 14 15 14 15 15 15 16 16
10 9 8 9 9 8 8 8 8 8 7 8 8 8 8 8 8 7 7 6 6 6 6 7 11 12 11 11 11 10 9 7 8 9 11 13 13 13 15 13 15 15 15 14 15 14 12 13 15 14 14 15 15 16
10 9 9 8 8 7 7 7 7 7 7 8 8 8 8 8 8 7 6 7 6 6 5 7 10 13 12 12 13 12 10 7 8 10 12 13 12 13 13 14 15 15 14 14 14 14 14 14 12 13 12 14 15 16
8 8 7 7 6 6 6 7 7 7 7 8 8 8 8 8 8 7 7 7 6 6 5 6 9 11 12 13 12 11 10 8 8 9 11 12 13 11 12 13 15 14 14 14 14 14 12 14 13 14 14 15 15 15
8 7 6 5 6 6 6 7 7 7 8 8 8 8 8 8 7 7 6 6 6 6 6 7 10 10 11 12 12 12 10 9 9 11 11 12 11 10 12 13 12 12 13 13 13 12 13 14 13 14 15 15 16 15
7 6 6 5 5 6 6 7 7 8 8 8 8 8 7 7 7 7 6 7 7 6 7 7 9 12 11 11 10 10 10 11 10 11 12 11 10 10 10 11 11 10 11 11 12 12 12 13 14 15 15 16 16 16
6 5 5 4 5 5 6 6 7 7 8 8 8 7 6 7 7 7 7 6 6 5 5 7 6 10 9 10 11 9 9 11 11 12 10 11 10 9 10 9 9 10 11 10 11 13 13 13 13 13 14 14 15 15
5 4 4 5 5 6 6 6 6 7 7 7 7 7 6 7 7 7 6 7 7 8 6 6 7 9 9 10 10 9 11 10 11 12 11 10 9 10 9 9 9 10 10 11 12 12 11 11 12 12 14 15 15 14
5 5 5 5 5 6 6 6 6 6 6 6 6 6 6 6 6 7 8 8 8 11 9 9 10 8 8 8 8 10 11 10 12 11 11 8 9 9 8 8 10 9 9 10 11 12 11 11 11 12 13 15 15 14
5 4 5 5 6 6 6 6 6 6 6 5 4 5 5 6 6 7 10 10 11 10 10 10 11 9 9 8 10 9 11 12 12 11 10 10 9 9 8 9 9 11 11 11 12 11 12 12 12 13 14 15 14 14
4 5 5 5 5 5 5 6 6 5 5 4 5 5 6 7 8 10 10 10 11 11 10 9 10 9 8 10 10 10 12 10 9 8 8 8 9 8 9 10 8 9 10 10 10 12 13 12 12 13 14 14 14 14
4 5 5 5 5 5 5 5 5 5 5 4 4 5 7 8 8 8 9 9 10 10 10 10 9 8 10 10 9 10 11 8 6 8 8 8 7 8 10 10 10 11 11 11 11 12 12 12 13 13 14 14 14 14
4 5 5 5 4 4 5 5 5 5 4 3 3 5 6 7 9 9 9 10 10 10 11 9 9 10 10 9 9 9 9 8 8 8 8 8 9 10 10 10 11 11 11 11 11 11 11 12 13 13 14 14 14 13
4 5 5 4 4 4 4 4 4 4 4 4 4 5 5 6 7 8 9 9 10 10 11 10 10 10 9 8 8 7 8 8 8 7 8 9 9 10 11 11 11 11 11 11 11 11 11 12 13 13 13 14 14 13
4 4 4 4 4 4 4 4 4 4 5 6 6 7 6 7 8 8 9 9 9 10 10 11 10 10 9 8 8 8 8 8 8 8 8 9 10 12 11 11 12 12 11 11 11 11 12 12 11 11 12 13 13 13
4 4 4 4 4 4 4 4 4 4 6 5 6 7 7 7 9 9 9 9 9 9 9 10 10 10 10 8 9 9 9 9 9 9 9 11 11 11 11 12 12 12 12 12 12 12 12 12 12 11 12 12 12 12
4 4 4 4 4 4 4 4 4 4 6 6 6 6 7 8 8 9 9 8 9 9 8 10 11 12 11 11 11 11 10 10 9 8 10 10 11 12 12 12 12 12 13 13 13 13 13 12 12 12 12 12 12 11
4 3 3 4 4 4 4 4 5 5 6 6 7 7 8 8 7 8 8 8 8 10 11 11 11 11 11 11 11 10 10 10 9 9 9 10 12 13 13 13 13 13 13 14 14 14 13 13 13 12 12 12 12 12
3 3 3 3 3 4 3 4 5 5 5 6 6 7 7 8 9 8 8 8 8 9 9 9 10 10 10 11 11 11 11 11 11 10 11 11 12 12 13 13 13 13 13 14 14 14 13 13 13 13 13 12 12 12
3 3 3 3 3 3 4 4 4 5 6 8 7 8 9 9 9 9 8 8 8 8 8 8 9 9 10 10 11 11 11 11 11 11 11 11 12 12 12 13 13 13 13 14 14 14 14 14 14 14 13 13 13 12
3 3 3 3 3 4 5 5 5 5 7 8 7 9 10 9 9 8 10 8 8 7 7 8 9 10 10 10 10 10 10 10 10 11 11 12 12 12 12 13 13 13 13 14 14 14 14 14 14 14 14 14 13 13
3 3 3 3 4 4 6 7 7 7 9 9 9 10 10 9 10 10 9 8 7 7 8 9 10 10 9 8 9 9 9 10 10 11 11 12 12 12 12 13 13 13 13 13 13 13 13 13 14 14 14 14 14 13
2 3 3 4 5 5 6 7 8 8 9 9 10 9 8 9 10 9 7 7 7 8 8 9 9 9 9 9 9 9 9 10 11 11 11 11 11 12 12 12 12 12 13 13 13 13 13 12 12 13 12 12 12 11
3 5 4 4 4 4 6 6 7 8 8 9 9 9 9 10 10 7 7 7 8 9 9 9 9 9 9 9 10 9 10 10 11 11 12 12 12 12 12 12 12 12 12 12 12 12 12 12 12 12 11 11 11 11
3 3 5 4 4 4 6 7 8 8 9 8 8 9 9 10 10 8 8 8 8 9 9 9 9 9 9 9 10 10 11 11 11 12 12 12 12 12 12 12 12 12 12 12 12 12 11 11 11 11 10 10 10 10
3 3 3 4 5 5 5 7 8 8 9 8 9 9 9 9 9 9 9 9 9 9 9 9 9 9 10 10 10 10 10 11 11 11 11 11 12 12 12 12 11 11 11 11 11 11 10 10 10 10 9 9 8 8
4 4 4 4 5 6 7 7 8 8 8 8 7 7 8 8 8 9 9 9 9 9 9 9 9 10 10 10 10 10 10 11 11 11 11 11 11 11 11 11 11 10 10 10 10 9 9 9 9 8 8 7 6 6
4 4 4 5 6 6 7 7 7 7 7 6 6 5 6 6 6 8 8 8 8 9 9 9 9 10 10 10 10 10 10 10 10 10 10 10 10 10 10 9 9 9 9 9 9 8 8 7 7 6 6 6 6 6
4 4 6 6 6 6 5 5 5 5 5 5 5 5 5 5 5 7 7 8 8 9 9 10 10 10 10 10 10 10 9 9 9 9 9 9 9 9 8 8 8 8 8 7 7 7 6 6 5 5 5 5 5 6
5 5 5 6 6 5 5 5 5 5 5 5 6 6 6 6 9 8 8 9 9 10 10 10 10 10 9 9 9 8 8 8 8 8 8 8 8 8 7 7 6 6 6 6 6 6 5 5 5 5 5 5 5 5

GFSWCAN_850_temp_174.txt.gz
Temp
10 9 9 7 8 10 10 10 10 10 10 10 9 9 10 10 10 10 9 9 8 10 12 10 11 12 13 13 16 15 16 16 18 18 19 20 19 20 19 21 20 20 20 22 22 21 19 19 22 22 20 19 20 21
10 10 9 8 8 9 10 10 10 10 10 9 9 8 9 10 10 9 7 8 8 6 11 10 10 9 10 11 12 13 14 15 16 18 18 18 19 19 19 18 19 18 17 17 18 18 20 19 19 18 19 19 19 19
10 9 9 8 8 9 9 9 9 9 9 9 9 8 9 9 9 9 8 8 6 8 11 11 13 10 10 10 10 13 14 13 14 13 16 18 16 18 18 19 18 19 18 17 18 20 20 18 18 19 18 18 18 19
10 10 10 9 9 9 9 9 9 9 9 8 8 8 9 9 8 8 7 7 6 6 11 14 11 11 11 10 10 10 11 11 12 13 15 16 16 17 18 18 18 18 18 17 18 19 19 18 17 17 16 16 17 18
9 8 8 9 9 9 8 8 8 8 8 8 8 8 9 9 8 8 8 7 7 7 11 12 12 12 11 11 10 10 10 11 10 10 14 15 16 17 17 17 18 18 17 15 16 18 17 17 16 15 14 15 15 16
7 7 8 8 8 8 8 7 7 8 8 8 8 8 8 8 8 7 7 7 6 5 7 14 13 12 12 12 12 11 11 11 11 13 15 16 16 15 16 17 18 17 16 15 15 16 16 16 16 15 14 13 15 16
7 8 8 7 7 6 7 7 7 8 8 8 8 8 8 8 8 7 8 7 6 6 7 12 15 14 12 13 15 13 12 11 11 14 14 15 16 14 16 16 16 14 13 14 15 16 16 16 15 15 13 13 15 16
7 7 6 6 6 6 6 7 7 8 8 8 9 9 8 8 8 7 6 7 7 6 7 12 15 15 13 15 15 13 14 13 13 14 15 15 15 13 13 12 10 10 11 13 14 14 15 15 14 14 14 13 15 15
7 7 6 6 5 5 6 6 7 7 8 8 8 8 7 7 8 7 7 7 7 6 9 12 15 15 13 15 14 14 13 14 14 15 15 14 13 10 9 9 9 9 10 10 13 14 14 15 15 14 15 16 16 16
7 6 5 5 4 5 6 7 7 8 8 8 8 7 8 7 7 8 7 6 6 6 7 12 12 15 13 14 15 14 14 15 15 15 14 11 10 9 9 8 9 9 9 9 11 13 13 14 15 15 15 15 15 15
6 5 5 4 5 6 6 6 7 7 8 6 7 8 6 7 7 7 9 8 9 12 11 12 12 14 13 14 14 13 15 15 14 14 14 10 10 10 9 9 9 9 9 9 10 11 12 13 14 14 14 14 15 15
6 5 4 5 5 6 6 6 6 6 6 6 7 7 7 7 9 10 12 12 11 14 13 13 13 13 13 11 12 12 13 14 14 15 14 10 10 9 8 9 9 9 10 11 11 11 11 11 13 14 14 14 15 15
5 5 4 5 5 6 6 6 6 6 6 6 5 7 8 9 8 11 13 14 14 14 14 13 14 13 13 11 13 14 13 14 15 10 9 10 9 9 9 9 8 10 11 12 11 11 11 11 13 13 14 14 15 15
5 4 4 5 5 6 6 6 6 6 6 6 8 5 10 11 13 14 14 14 13 13 13 13 14 13 13 13 13 12 14 13 9 9 9 9 9 9 9 8 10 11 11 11 11 11 11 12 13 13 14 14 14 15
5 4 5 5 5 5 5 5 5 5 4 7 7 7 11 12 12 12 12 12 13 12 13 13 14 13 14 12 11 12 10 9 8 9 9 9 8 8 8 10 11 11 11 11 11 11 11 12 13 13 13 14 14 14
5 4 5 5 5 5 5 5 5 5 4 6 6 8 11 11 13 13 13 13 12 12 12 13 13 12 13 13 11 10 9 10 9 9 9 10 10 10 9 11 11 12 11 11 11 11 11 11 11 12 13 13 13 14
4 4 5 5 5 5 5 4 4 4 6 7 9 8 9 10 11 12 12 12 11 11 13 13 12 13 13 12 10 9 9 9 9 10 11 11 11 10 10 11 12 12 11 10 11 12 11 11 11 11 12 11 13 13
4 5 5 5 4 4 3 4 5 6 7 9 10 11 10 10 10 11 11 11 10 11 11 13 12 13 13 12 12 11 9 10 10 10 11 11 11 10 10 11 11 12 12 12 12 12 12 11 12 12 12 12 12 12
4 4 5 4 4 4 4 4 4 7 9 9 9 9 9 10 10 10 10 11 10 10 10 12 12 12 13 12 12 12 11 11 11 11 11 11 11 11 11 11 11 13 13 12 12 13 12 12 12 12 11 11 11 11
4 4 4 4 4 3 4 6 4 5 8 10 9 9 10 10 11 10 11 11 11 10 11 12 13 13 13 13 13 11 11 10 10 10 12 12 12 12 11 12 12 13 13 14 14 13 14 13 13 12 12 11 11 11
4 4 4 4 2 3 4 6 6 7 8 9 10 9 10 11 10 11 11 11 11 12 12 12 12 12 12 11 11 11 11 10 10 10 11 12 12 12 12 13 13 14 13 14 15 14 14 14 12 12 11 11 11 11
3 3 3 3 3 4 3 5 6 6 7 9 9 10 10 12 12 12 10 11 11 12 11 11 12 11 10 10 10 11 11 10 10 10 11 11 11 12 12 13 13 14 14 14 14 14 14 14 13 13 12 11 11 11
3 3 3 3 4 4 5 4 6 7 9 10 10 11 12 12 12 10 11 11 9 8 9 9 9 9 9 9 10 11 10 10 10 10 11 11 12 12 13 12 12 14 14 14 14 14 14 14 14 14 13 13 13 13
3 3 4 4 4 5 6 7 7 7 9 10 10 11 12 12 11 11 11 9 8 7 8 8 9 9 9 9 10 10 9 9 10 10 11 11 11 13 12 13 13 13 13 13 14 14 14 13 13 13 13 13 12 12
3 3 3 3 5 5 7 8 9 10 10 11 11 12 12 11 11 12 10 8 8 8 8 8 9 9 10 10 10 10 9 9 10 10 11 11 11 12 12 12 12 12 13 13 14 13 13 13 12 12 12 12 12 12
2 4 3 6 7 7 9 9 10 10 11 11 11 12 11 12 12 10 7 7 7 7 8 8 9 9 10 9 9 10 10 9 9 10 10 11 11 12 11 11 12 12 12 12 13 13 12 12 12 12 12 11 11 11
3 5 6 5 6 7 8 9 9 10 10 11 12 11 11 11 11 7 7 8 8 8 8 9 9 10 10 9 9 9 9 10 11 11 10 11 11 11 11 12 12 12 12 11 12 12 12 12 11 11 11 11 10 10
5 6 7 7 7 7 8 8 9 9 11 11 11 10 11 12 10 7 7 8 8 8 8 9 9 9 9 9 9 9 10 11 11 11 11 11 12 11 11 11 12 12 12 12 11 11 11 11 10 10 10 9 9 9
5 6 6 7 7 7 8 8 9 10 10 10 11 11 11 11 10 9 8 8 8 9 9 9 9 9 9 9 9 9 9 10 12 11 12 11 12 11 11 11 11 10 10 10 10 10 10 9 9 9 8 8 8 8
6 6 7 7 8 8 8 8 9 9 9 9 10 10 9 10 10 9 9 8 8 9 9 9 9 9 9 11 10 10 10 11 11 11 12 12 11 10 10 9 9 9 9 9 9 9 8 9 8 8 8 8 8 8
7 6 6 7 8 8 6 6 6 6 7 8 8 8 9 9 8 8 8 8 8 8 8 9 9 9 10 10 10 9 10 10 10 10 10 10 9 9 9 9 9 9 9 9 9 8 8 8 8 8 8 7 7 7
7 7 7 8 8 6 5 4 4 4 5 5 5 5 5 6 7 8 8 8 8 9 9 9 11 10 9 9 9 10 9 9 9 9 9 9 8 8 9 8 8 8 8 8 7 7 7 7 7 7 7 6 6 6
8 8 7 7 5 5 5 5 5 6 5 6 6 6 6 6 9 9 8 9 10 10 10 9 9 9 8 8 8 8 8 8 8 8 8 8 8 7 8 8 7 7 7 7 7 7 6 6 6 6 6 6 6 5